Location: B?jaj?g
(11.7167°N, 92.6667°E)
Time: 03:46:15
(UTC+00:00)

Orbus 21S - Pass Details

Date: 18 September 2020
Orbit: 282 x 32777 km, 24.3° (Epoch: 18 October)

Event Time Altitude Azimuth Distance (km) Brightness Sun altitude
Exits shadow 22:35:48 - 291° (WNW) 8,715 7.8 -16.2°
Reaches altitude 10° 22:38:11 10° 292° (WNW) 7,801 7.6 -15.6°
Maximum altitude 22:53:45 42° 360° (N) 1,419 4.4 -11.8°
Drops below altitude 10° 22:57:12 10° 74° (ENE) 1,810 6.4 -11.0°
Sets 22:58:31 0° 84° (E) 2,370 7.9 -10.6°
